owner,sensor,date,latitude,longitude,air_temperature,qcFlag 
COMPS,ioos:station:USF.COMPS:SHP:1,2010-12-01T00:00:00Z,30.0600,-84.2910,20.7,1111122 
COMPS,ioos:station:USF.COMPS:SHP:1,2010-12-01T00:06:00Z,30.0600,-84.2910,20.59,1111122 
COMPS,ioos:station:USF.COMPS:SHP:1,2010-12-01T00:12:00Z,30.0600,-84.2910,20.61,1111122 
COMPS,ioos:station:USF.COMPS:SHP:1,2010-12-01T00:18:00Z,30.0600,-84.2910,20.73,1111122 
COMPS,ioos:station:USF.COMPS:SHP:1,2010-12-01T00:24:00Z,30.0600,-84.2910,20.6,1111122 
COMPS,ioos:station:USF.COMPS:SHP:1,2010-12-01T00:30:00Z,30.0600,-84.2910,20.67,1111122 
COMPS,ioos:station:USF.COMPS:SHP:1,2010-12-01T00:36:00Z,30.0600,-84.2910,20.64,1111122 
COMPS,ioos:station:USF.COMPS:SHP:1,2010-12-01T00:42:00Z,30.0600,-84.2910,20.88,1111122 
COMPS,ioos:station:USF.COMPS:SHP:1,2010-12-01T00:48:00Z,30.0600,-84.2910,20.77,1111122 
COMPS,ioos:station:USF.COMPS:SHP:1,2010-12-01T00:54:00Z,30.0600,-84.2910,20.64,1111122 
COMPS,ioos:station:USF.COMPS:SHP:1,2010-12-01T01:00:00Z,30.0600,-84.2910,20.6,1111122 
COMPS,ioos:station:USF.COMPS:SHP:1,2010-12-01T01:06:00Z,30.0600,-84.2910,20.8,1111122 
COMPS,ioos:station:USF.COMPS:SHP:1,2010-12-01T01:12:00Z,30.0600,-84.2910,20.68,1111122 
COMPS,ioos:station:USF.COMPS:SHP:1,2010-12-01T01:18:00Z,30.0600,-84.2910,20.69,1111122 
COMPS,ioos:station:USF.COMPS:SHP:1,2010-12-01T01:24:00Z,30.0600,-84.2910,20.72,1111122 
COMPS,ioos:station:USF.COMPS:SHP:1,2010-12-01T01:30:00Z,30.0600,-84.2910,20.9,1111122 
COMPS,ioos:station:USF.COMPS:SHP:1,2010-12-01T01:36:00Z,30.0600,-84.2910,20.89,1111122 
COMPS,ioos:station:USF.COMPS:SHP:1,2010-12-01T01:42:00Z,30.0600,-84.2910,20.8,1111122 
COMPS,ioos:station:USF.COMPS:SHP:1,2010-12-01T01:48:00Z,30.0600,-84.2910,20.83,1111122 
COMPS,ioos:station:USF.COMPS:SHP:1,2010-12-01T01:54:00Z,30.0600,-84.2910,19.42,1111122 
COMPS,ioos:station:USF.COMPS:SHP:1,2010-12-01T02:00:00Z,30.0600,-84.2910,19.4,1111122 
COMPS,ioos:station:USF.COMPS:SHP:1,2010-12-01T02:06:00Z,30.0600,-84.2910,15.62,1111122 
COMPS,ioos:station:USF.COMPS:SHP:1,2010-12-01T02:12:00Z,30.0600,-84.2910,15.37,1111122 
COMPS,ioos:station:USF.COMPS:SHP:1,2010-12-01T02:18:00Z,30.0600,-84.2910,15.27,1111122 
COMPS,ioos:station:USF.COMPS:SHP:1,2010-12-01T02:24:00Z,30.0600,-84.2910,15.09,1111122 
COMPS,ioos:station:USF.COMPS:SHP:1,2010-12-01T02:30:00Z,30.0600,-84.2910,14.78,1111122 
COMPS,ioos:station:USF.COMPS:SHP:1,2010-12-01T02:36:00Z,30.0600,-84.2910,14.68,1111122 
COMPS,ioos:station:USF.COMPS:SHP:1,2010-12-01T02:42:00Z,30.0600,-84.2910,14.57,1111122 
COMPS,ioos:station:USF.COMPS:SHP:1,2010-12-01T02:48:00Z,30.0600,-84.2910,14.39,1111122 
COMPS,ioos:station:USF.COMPS:SHP:1,2010-12-01T02:54:00Z,30.0600,-84.2910,14.08,1111122 
COMPS,ioos:station:USF.COMPS:SHP:1,2010-12-01T03:00:00Z,30.0600,-84.2910,14.06,1111122 
COMPS,ioos:station:USF.COMPS:SHP:1,2010-12-01T03:06:00Z,30.0600,-84.2910,14.08,1111122 
COMPS,ioos:station:USF.COMPS:SHP:1,2010-12-01T03:12:00Z,30.0600,-84.2910,14.22,1111122 
COMPS,ioos:station:USF.COMPS:SHP:1,2010-12-01T03:18:00Z,30.0600,-84.2910,13.96,1111122 
COMPS,ioos:station:USF.COMPS:SHP:1,2010-12-01T03:24:00Z,30.0600,-84.2910,13.91,1111122 
COMPS,ioos:station:USF.COMPS:SHP:1,2010-12-01T03:30:00Z,30.0600,-84.2910,13.88,1111122 
COMPS,ioos:station:USF.COMPS:SHP:1,2010-12-01T03:36:00Z,30.0600,-84.2910,13.98,1111122 
COMPS,ioos:station:USF.COMPS:SHP:1,2010-12-01T03:42:00Z,30.0600,-84.2910,13.76,1111122 
COMPS,ioos:station:USF.COMPS:SHP:1,2010-12-01T03:48:00Z,30.0600,-84.2910,13.62,1111122 
COMPS,ioos:station:USF.COMPS:SHP:1,2010-12-01T03:54:00Z,30.0600,-84.2910,13.6,1111122 
COMPS,ioos:station:USF.COMPS:SHP:1,2010-12-01T04:00:00Z,30.0600,-84.2910,13.6,1111122 
COMPS,ioos:station:USF.COMPS:SHP:1,2010-12-01T04:06:00Z,30.0600,-84.2910,6.51,1111122 
COMPS,ioos:station:USF.COMPS:SHP:1,2010-12-01T04:12:00Z,30.0600,-84.2910,13.55,1111122 
COMPS,ioos:station:USF.COMPS:SHP:1,2010-12-01T04:18:00Z,30.0600,-84.2910,13.56,1111122 
COMPS,ioos:station:USF.COMPS:SHP:1,2010-12-01T04:24:00Z,30.0600,-84.2910,13.58,1111122 
COMPS,ioos:station:USF.COMPS:SHP:1,2010-12-01T04:30:00Z,30.0600,-84.2910,13.43,1111122 
COMPS,ioos:station:USF.COMPS:SHP:1,2010-12-01T04:36:00Z,30.0600,-84.2910,13.35,1111122 
COMPS,ioos:station:USF.COMPS:SHP:1,2010-12-01T04:42:00Z,30.0600,-84.2910,13.33,1111122 
COMPS,ioos:station:USF.COMPS:SHP:1,2010-12-01T04:48:00Z,30.0600,-84.2910,13.19,1111122 
COMPS,ioos:station:USF.COMPS:SHP:1,2010-12-01T04:54:00Z,30.0600,-84.2910,13.15,1111122 
COMPS,ioos:station:USF.COMPS:SHP:1,2010-12-01T05:00:00Z,30.0600,-84.2910,13.2,1111122 
COMPS,ioos:station:USF.COMPS:SHP:1,2010-12-01T05:06:00Z,30.0600,-84.2910,12.87,1111122 
COMPS,ioos:station:USF.COMPS:SHP:1,2010-12-01T05:12:00Z,30.0600,-84.2910,12.68,1111122 
COMPS,ioos:station:USF.COMPS:SHP:1,2010-12-01T05:18:00Z,30.0600,-84.2910,12.73,1111122 
COMPS,ioos:station:USF.COMPS:SHP:1,2010-12-01T05:24:00Z,30.0600,-84.2910,12.54,1111122 
COMPS,ioos:station:USF.COMPS:SHP:1,2010-12-01T05:30:00Z,30.0600,-84.2910,12.51,1111122 
COMPS,ioos:station:USF.COMPS:SHP:1,2010-12-01T05:36:00Z,30.0600,-84.2910,12.52,1111122 
COMPS,ioos:station:USF.COMPS:SHP:1,2010-12-01T05:42:00Z,30.0600,-84.2910,12.64,1111122 
COMPS,ioos:station:USF.COMPS:SHP:1,2010-12-01T05:48:00Z,30.0600,-84.2910,12.37,1111122 
COMPS,ioos:station:USF.COMPS:SHP:1,2010-12-01T05:54:00Z,30.0600,-84.2910,12.46,1111122 
COMPS,ioos:station:USF.COMPS:SHP:1,2010-12-01T06:00:00Z,30.0600,-84.2910,12.5,1111122 
COMPS,ioos:station:USF.COMPS:SHP:1,2010-12-01T06:06:00Z,30.0600,-84.2910,12.67,1111122 
COMPS,ioos:station:USF.COMPS:SHP:1,2010-12-01T06:12:00Z,30.0600,-84.2910,12.57,1111122 
COMPS,ioos:station:USF.COMPS:SHP:1,2010-12-01T06:18:00Z,30.0600,-84.2910,12.61,1111122 
COMPS,ioos:station:USF.COMPS:SHP:1,2010-12-01T06:24:00Z,30.0600,-84.2910,12.48,1111122 
COMPS,ioos:station:USF.COMPS:SHP:1,2010-12-01T06:30:00Z,30.0600,-84.2910,12.56,1111122 
COMPS,ioos:station:USF.COMPS:SHP:1,2010-12-01T06:36:00Z,30.0600,-84.2910,12.39,1111122 
COMPS,ioos:station:USF.COMPS:SHP:1,2010-12-01T06:42:00Z,30.0600,-84.2910,12.4,1111122 
COMPS,ioos:station:USF.COMPS:SHP:1,2010-12-01T06:48:00Z,30.0600,-84.2910,12.3,1111122 
COMPS,ioos:station:USF.COMPS:SHP:1,2010-12-01T06:54:00Z,30.0600,-84.2910,12.3,1111122 
COMPS,ioos:station:USF.COMPS:SHP:1,2010-12-01T07:00:00Z,30.0600,-84.2910,12.3,1111122 
COMPS,ioos:station:USF.COMPS:SHP:1,2010-12-01T07:06:00Z,30.0600,-84.2910,12.05,1111122 
COMPS,ioos:station:USF.COMPS:SHP:1,2010-12-01T07:12:00Z,30.0600,-84.2910,11.98,1111122 
COMPS,ioos:station:USF.COMPS:SHP:1,2010-12-01T07:18:00Z,30.0600,-84.2910,12.04,1111122 
COMPS,ioos:station:USF.COMPS:SHP:1,2010-12-01T07:24:00Z,30.0600,-84.2910,11.92,1111122 
COMPS,ioos:station:USF.COMPS:SHP:1,2010-12-01T07:30:00Z,30.0600,-84.2910,11.8,1111122 
COMPS,ioos:station:USF.COMPS:SHP:1,2010-12-01T07:36:00Z,30.0600,-84.2910,11.74,1111122 
COMPS,ioos:station:USF.COMPS:SHP:1,2010-12-01T07:42:00Z,30.0600,-84.2910,11.64,1111122 
COMPS,ioos:station:USF.COMPS:SHP:1,2010-12-01T07:48:00Z,30.0600,-84.2910,11.4,1111122 
COMPS,ioos:station:USF.COMPS:SHP:1,2010-12-01T07:54:00Z,30.0600,-84.2910,10.88,1111122 
COMPS,ioos:station:USF.COMPS:SHP:1,2010-12-01T08:00:00Z,30.0600,-84.2910,10.9,1111122 
COMPS,ioos:station:USF.COMPS:SHP:1,2010-12-01T08:06:00Z,30.0600,-84.2910,10.47,1111122 
COMPS,ioos:station:USF.COMPS:SHP:1,2010-12-01T08:12:00Z,30.0600,-84.2910,10.49,1111122 
COMPS,ioos:station:USF.COMPS:SHP:1,2010-12-01T08:18:00Z,30.0600,-84.2910,10.38,1111122 
COMPS,ioos:station:USF.COMPS:SHP:1,2010-12-01T08:24:00Z,30.0600,-84.2910,10.46,1111122 
COMPS,ioos:station:USF.COMPS:SHP:1,2010-12-01T08:30:00Z,30.0600,-84.2910,10.41,1111122 
COMPS,ioos:station:USF.COMPS:SHP:1,2010-12-01T08:36:00Z,30.0600,-84.2910,10.42,1111122 
COMPS,ioos:station:USF.COMPS:SHP:1,2010-12-01T08:42:00Z,30.0600,-84.2910,10.22,1111122 
COMPS,ioos:station:USF.COMPS:SHP:1,2010-12-01T08:48:00Z,30.0600,-84.2910,10.06,1111122 
COMPS,ioos:station:USF.COMPS:SHP:1,2010-12-01T08:54:00Z,30.0600,-84.2910,9.93,1111122 
COMPS,ioos:station:USF.COMPS:SHP:1,2010-12-01T09:00:00Z,30.0600,-84.2910,9.9,1111122 
COMPS,ioos:station:USF.COMPS:SHP:1,2010-12-01T09:06:00Z,30.0600,-84.2910,9.78,1111122 
COMPS,ioos:station:USF.COMPS:SHP:1,2010-12-01T09:12:00Z,30.0600,-84.2910,9.62,1111122 
COMPS,ioos:station:USF.COMPS:SHP:1,2010-12-01T09:18:00Z,30.0600,-84.2910,9.47,1111122 
COMPS,ioos:station:USF.COMPS:SHP:1,2010-12-01T09:24:00Z,30.0600,-84.2910,9.35,1111122 
COMPS,ioos:station:USF.COMPS:SHP:1,2010-12-01T09:30:00Z,30.0600,-84.2910,8.86,1111122 
COMPS,ioos:station:USF.COMPS:SHP:1,2010-12-01T09:36:00Z,30.0600,-84.2910,8.42,1111122 
COMPS,ioos:station:USF.COMPS:SHP:1,2010-12-01T09:42:00Z,30.0600,-84.2910,8.24,1111122 
COMPS,ioos:station:USF.COMPS:SHP:1,2010-12-01T09:48:00Z,30.0600,-84.2910,7.99,1111122 
COMPS,ioos:station:USF.COMPS:SHP:1,2010-12-01T09:54:00Z,30.0600,-84.2910,7.87,1111122 
COMPS,ioos:station:USF.COMPS:SHP:1,2010-12-01T10:00:00Z,30.0600,-84.2910,7.9,1111122 
COMPS,ioos:station:USF.COMPS:SHP:1,2010-12-01T10:06:00Z,30.0600,-84.2910,7.5,1111122 
COMPS,ioos:station:USF.COMPS:SHP:1,2010-12-01T10:12:00Z,30.0600,-84.2910,7.45,1111122 
COMPS,ioos:station:USF.COMPS:SHP:1,2010-12-01T10:18:00Z,30.0600,-84.2910,7.29,1111122 
COMPS,ioos:station:USF.COMPS:SHP:1,2010-12-01T10:24:00Z,30.0600,-84.2910,6.77,1111122 
COMPS,ioos:station:USF.COMPS:SHP:1,2010-12-01T10:30:00Z,30.0600,-84.2910,6.48,1111122 
COMPS,ioos:station:USF.COMPS:SHP:1,2010-12-01T10:36:00Z,30.0600,-84.2910,6.31,1111122 
COMPS,ioos:station:USF.COMPS:SHP:1,2010-12-01T10:42:00Z,30.0600,-84.2910,6.27,1111122 
COMPS,ioos:station:USF.COMPS:SHP:1,2010-12-01T10:48:00Z,30.0600,-84.2910,5.91,1111122 
COMPS,ioos:station:USF.COMPS:SHP:1,2010-12-01T10:54:00Z,30.0600,-84.2910,5.82,1111122 
COMPS,ioos:station:USF.COMPS:SHP:1,2010-12-01T11:00:00Z,30.0600,-84.2910,5.8,1111122 
COMPS,ioos:station:USF.COMPS:SHP:1,2010-12-01T11:06:00Z,30.0600,-84.2910,5.41,1111122 
COMPS,ioos:station:USF.COMPS:SHP:1,2010-12-01T11:12:00Z,30.0600,-84.2910,5.21,1111122 
COMPS,ioos:station:USF.COMPS:SHP:1,2010-12-01T11:18:00Z,30.0600,-84.2910,5.07,1111122 
COMPS,ioos:station:USF.COMPS:SHP:1,2010-12-01T11:24:00Z,30.0600,-84.2910,4.95,1111122 
COMPS,ioos:station:USF.COMPS:SHP:1,2010-12-01T11:30:00Z,30.0600,-84.2910,4.97,1111122 
COMPS,ioos:station:USF.COMPS:SHP:1,2010-12-01T11:36:00Z,30.0600,-84.2910,4.72,1111122 
COMPS,ioos:station:USF.COMPS:SHP:1,2010-12-01T11:42:00Z,30.0600,-84.2910,4.7,1111122 
COMPS,ioos:station:USF.COMPS:SHP:1,2010-12-01T11:48:00Z,30.0600,-84.2910,4.58,1111122 
COMPS,ioos:station:USF.COMPS:SHP:1,2010-12-01T11:54:00Z,30.0600,-84.2910,4.58,1111122 
COMPS,ioos:station:USF.COMPS:SHP:1,2010-12-01T12:00:00Z,30.0600,-84.2910,4.6,1111122 
COMPS,ioos:station:USF.COMPS:SHP:1,2010-12-01T13:00:00Z,30.0600,-84.2910,4.09,1111122 
COMPS,ioos:station:USF.COMPS:SHP:1,2010-12-01T13:06:00Z,30.0600,-84.2910,4.05,1111122 
COMPS,ioos:station:USF.COMPS:SHP:1,2010-12-01T13:12:00Z,30.0600,-84.2910,4.28,1111122 
COMPS,ioos:station:USF.COMPS:SHP:1,2010-12-01T13:18:00Z,30.0600,-84.2910,4.2,1111122 
COMPS,ioos:station:USF.COMPS:SHP:1,2010-12-01T13:24:00Z,30.0600,-84.2910,4.38,1111122 
COMPS,ioos:station:USF.COMPS:SHP:1,2010-12-01T13:30:00Z,30.0600,-84.2910,4.48,1111122 
COMPS,ioos:station:USF.COMPS:SHP:1,2010-12-01T13:36:00Z,30.0600,-84.2910,4.63,1111122 
COMPS,ioos:station:USF.COMPS:SHP:1,2010-12-01T13:42:00Z,30.0600,-84.2910,4.7,1111122 
COMPS,ioos:station:USF.COMPS:SHP:1,2010-12-01T13:48:00Z,30.0600,-84.2910,4.79,1111122 
COMPS,ioos:station:USF.COMPS:SHP:1,2010-12-01T13:54:00Z,30.0600,-84.2910,4.93,1111122 
COMPS,ioos:station:USF.COMPS:SHP:1,2010-12-01T14:00:00Z,30.0600,-84.2910,4.9,1111122 
COMPS,ioos:station:USF.COMPS:SHP:1,2010-12-01T14:06:00Z,30.0600,-84.2910,5.27,1111122 
COMPS,ioos:station:USF.COMPS:SHP:1,2010-12-01T14:12:00Z,30.0600,-84.2910,5.52,1111122 
COMPS,ioos:station:USF.COMPS:SHP:1,2010-12-01T14:18:00Z,30.0600,-84.2910,5.34,1111122 
COMPS,ioos:station:USF.COMPS:SHP:1,2010-12-01T14:24:00Z,30.0600,-84.2910,5.57,1111122 
COMPS,ioos:station:USF.COMPS:SHP:1,2010-12-01T14:30:00Z,30.0600,-84.2910,5.54,1111122 
COMPS,ioos:station:USF.COMPS:SHP:1,2010-12-01T14:36:00Z,30.0600,-84.2910,5.58,1111122 
COMPS,ioos:station:USF.COMPS:SHP:1,2010-12-01T14:42:00Z,30.0600,-84.2910,5.78,1111122 
COMPS,ioos:station:USF.COMPS:SHP:1,2010-12-01T14:48:00Z,30.0600,-84.2910,5.82,1111122 
COMPS,ioos:station:USF.COMPS:SHP:1,2010-12-01T14:54:00Z,30.0600,-84.2910,6.05,1111122 
COMPS,ioos:station:USF.COMPS:SHP:1,2010-12-01T15:00:00Z,30.0600,-84.2910,6.1,1111122 
COMPS,ioos:station:USF.COMPS:SHP:1,2010-12-01T15:06:00Z,30.0600,-84.2910,6.18,1111122 
COMPS,ioos:station:USF.COMPS:SHP:1,2010-12-01T15:12:00Z,30.0600,-84.2910,6.3,1111122 
COMPS,ioos:station:USF.COMPS:SHP:1,2010-12-01T15:18:00Z,30.0600,-84.2910,6.46,1111122 
COMPS,ioos:station:USF.COMPS:SHP:1,2010-12-01T15:24:00Z,30.0600,-84.2910,6.53,1111122 
COMPS,ioos:station:USF.COMPS:SHP:1,2010-12-01T15:30:00Z,30.0600,-84.2910,6.97,1111122 
COMPS,ioos:station:USF.COMPS:SHP:1,2010-12-01T15:36:00Z,30.0600,-84.2910,7.11,1111122 
COMPS,ioos:station:USF.COMPS:SHP:1,2010-12-01T15:42:00Z,30.0600,-84.2910,7.23,1111122 
COMPS,ioos:station:USF.COMPS:SHP:1,2010-12-01T15:48:00Z,30.0600,-84.2910,7.0,1111122 
COMPS,ioos:station:USF.COMPS:SHP:1,2010-12-01T15:54:00Z,30.0600,-84.2910,7.21,1111122 
COMPS,ioos:station:USF.COMPS:SHP:1,2010-12-01T16:00:00Z,30.0600,-84.2910,7.2,1111122 
COMPS,ioos:station:USF.COMPS:SHP:1,2010-12-01T16:06:00Z,30.0600,-84.2910,7.59,1111122 
COMPS,ioos:station:USF.COMPS:SHP:1,2010-12-01T16:12:00Z,30.0600,-84.2910,7.6,1111122 
COMPS,ioos:station:USF.COMPS:SHP:1,2010-12-01T16:18:00Z,30.0600,-84.2910,8.06,1111122 
COMPS,ioos:station:USF.COMPS:SHP:1,2010-12-01T16:24:00Z,30.0600,-84.2910,8.31,1111122 
COMPS,ioos:station:USF.COMPS:SHP:1,2010-12-01T16:30:00Z,30.0600,-84.2910,8.41,1111122 
COMPS,ioos:station:USF.COMPS:SHP:1,2010-12-01T16:36:00Z,30.0600,-84.2910,8.52,1111122 
COMPS,ioos:station:USF.COMPS:SHP:1,2010-12-01T16:42:00Z,30.0600,-84.2910,8.71,1111122 
COMPS,ioos:station:USF.COMPS:SHP:1,2010-12-01T16:48:00Z,30.0600,-84.2910,9.06,1111122 
COMPS,ioos:station:USF.COMPS:SHP:1,2010-12-01T16:54:00Z,30.0600,-84.2910,9.13,1111122 
COMPS,ioos:station:USF.COMPS:SHP:1,2010-12-01T17:00:00Z,30.0600,-84.2910,9.1,1111122 
COMPS,ioos:station:USF.COMPS:SHP:1,2010-12-01T17:06:00Z,30.0600,-84.2910,9.21,1111122 
COMPS,ioos:station:USF.COMPS:SHP:1,2010-12-01T17:12:00Z,30.0600,-84.2910,9.76,1111122 
COMPS,ioos:station:USF.COMPS:SHP:1,2010-12-01T17:18:00Z,30.0600,-84.2910,9.86,1111122 
COMPS,ioos:station:USF.COMPS:SHP:1,2010-12-01T17:24:00Z,30.0600,-84.2910,10.15,1111122 
COMPS,ioos:station:USF.COMPS:SHP:1,2010-12-01T17:30:00Z,30.0600,-84.2910,10.22,1111122 
COMPS,ioos:station:USF.COMPS:SHP:1,2010-12-01T17:36:00Z,30.0600,-84.2910,10.31,1111122 
COMPS,ioos:station:USF.COMPS:SHP:1,2010-12-01T17:42:00Z,30.0600,-84.2910,10.31,1111122 
COMPS,ioos:station:USF.COMPS:SHP:1,2010-12-01T17:48:00Z,30.0600,-84.2910,10.71,1111122 
COMPS,ioos:station:USF.COMPS:SHP:1,2010-12-01T17:54:00Z,30.0600,-84.2910,10.44,1111122 
COMPS,ioos:station:USF.COMPS:SHP:1,2010-12-01T18:00:00Z,30.0600,-84.2910,10.4,1111122 
COMPS,ioos:station:USF.COMPS:SHP:1,2010-12-01T18:06:00Z,30.0600,-84.2910,10.82,1111122 
COMPS,ioos:station:USF.COMPS:SHP:1,2010-12-01T18:12:00Z,30.0600,-84.2910,11.01,1111122 
COMPS,ioos:station:USF.COMPS:SHP:1,2010-12-01T18:18:00Z,30.0600,-84.2910,11.22,1111122 
COMPS,ioos:station:USF.COMPS:SHP:1,2010-12-01T18:24:00Z,30.0600,-84.2910,10.88,1111122 
COMPS,ioos:station:USF.COMPS:SHP:1,2010-12-01T18:30:00Z,30.0600,-84.2910,11.0,1111122 
COMPS,ioos:station:USF.COMPS:SHP:1,2010-12-01T18:36:00Z,30.0600,-84.2910,11.07,1111122 
COMPS,ioos:station:USF.COMPS:SHP:1,2010-12-01T18:42:00Z,30.0600,-84.2910,11.2,1111122 
COMPS,ioos:station:USF.COMPS:SHP:1,2010-12-01T18:48:00Z,30.0600,-84.2910,11.26,1111122 
COMPS,ioos:station:USF.COMPS:SHP:1,2010-12-01T18:54:00Z,30.0600,-84.2910,11.23,1111122 
COMPS,ioos:station:USF.COMPS:SHP:1,2010-12-01T19:00:00Z,30.0600,-84.2910,11.2,1111122 
COMPS,ioos:station:USF.COMPS:SHP:1,2010-12-01T19:06:00Z,30.0600,-84.2910,11.35,1111122 
COMPS,ioos:station:USF.COMPS:SHP:1,2010-12-01T19:12:00Z,30.0600,-84.2910,11.77,1111122 
COMPS,ioos:station:USF.COMPS:SHP:1,2010-12-01T19:18:00Z,30.0600,-84.2910,11.49,1111122 
COMPS,ioos:station:USF.COMPS:SHP:1,2010-12-01T19:24:00Z,30.0600,-84.2910,11.68,1111122 
COMPS,ioos:station:USF.COMPS:SHP:1,2010-12-01T19:30:00Z,30.0600,-84.2910,11.74,1111122 
COMPS,ioos:station:USF.COMPS:SHP:1,2010-12-01T19:36:00Z,30.0600,-84.2910,11.41,1111122 
COMPS,ioos:station:USF.COMPS:SHP:1,2010-12-01T19:42:00Z,30.0600,-84.2910,11.27,1111122 
COMPS,ioos:station:USF.COMPS:SHP:1,2010-12-01T19:48:00Z,30.0600,-84.2910,11.36,1111122 
COMPS,ioos:station:USF.COMPS:SHP:1,2010-12-01T19:54:00Z,30.0600,-84.2910,11.5,1111122 
COMPS,ioos:station:USF.COMPS:SHP:1,2010-12-01T20:00:00Z,30.0600,-84.2910,11.5,1111122 
COMPS,ioos:station:USF.COMPS:SHP:1,2010-12-01T20:06:00Z,30.0600,-84.2910,11.31,1111122 
COMPS,ioos:station:USF.COMPS:SHP:1,2010-12-01T20:12:00Z,30.0600,-84.2910,11.34,1111122 
COMPS,ioos:station:USF.COMPS:SHP:1,2010-12-01T20:18:00Z,30.0600,-84.2910,11.09,1111122 
COMPS,ioos:station:USF.COMPS:SHP:1,2010-12-01T20:24:00Z,30.0600,-84.2910,11.24,1111122 
COMPS,ioos:station:USF.COMPS:SHP:1,2010-12-01T20:30:00Z,30.0600,-84.2910,11.18,1111122 
COMPS,ioos:station:USF.COMPS:SHP:1,2010-12-01T20:36:00Z,30.0600,-84.2910,11.12,1111122 
COMPS,ioos:station:USF.COMPS:SHP:1,2010-12-01T20:42:00Z,30.0600,-84.2910,11.38,1111122 
COMPS,ioos:station:USF.COMPS:SHP:1,2010-12-01T20:48:00Z,30.0600,-84.2910,11.29,1111122 
COMPS,ioos:station:USF.COMPS:SHP:1,2010-12-01T20:54:00Z,30.0600,-84.2910,11.39,1111122 
COMPS,ioos:station:USF.COMPS:SHP:1,2010-12-01T21:00:00Z,30.0600,-84.2910,11.4,1111122 
COMPS,ioos:station:USF.COMPS:SHP:1,2010-12-01T21:06:00Z,30.0600,-84.2910,11.46,1111122 
COMPS,ioos:station:USF.COMPS:SHP:1,2010-12-01T21:12:00Z,30.0600,-84.2910,11.17,1111122 
COMPS,ioos:station:USF.COMPS:SHP:1,2010-12-01T21:18:00Z,30.0600,-84.2910,11.22,1111122 
COMPS,ioos:station:USF.COMPS:SHP:1,2010-12-01T21:24:00Z,30.0600,-84.2910,11.22,1111122 
COMPS,ioos:station:USF.COMPS:SHP:1,2010-12-01T21:30:00Z,30.0600,-84.2910,11.32,1111122 
COMPS,ioos:station:USF.COMPS:SHP:1,2010-12-01T21:36:00Z,30.0600,-84.2910,11.03,1111122 
COMPS,ioos:station:USF.COMPS:SHP:1,2010-12-01T21:42:00Z,30.0600,-84.2910,11.04,1111122 
COMPS,ioos:station:USF.COMPS:SHP:1,2010-12-01T21:48:00Z,30.0600,-84.2910,10.97,1111122 
COMPS,ioos:station:USF.COMPS:SHP:1,2010-12-01T21:54:00Z,30.0600,-84.2910,10.95,1111122 
COMPS,ioos:station:USF.COMPS:SHP:1,2010-12-01T22:00:00Z,30.0600,-84.2910,11.0,1111122 
COMPS,ioos:station:USF.COMPS:SHP:1,2010-12-01T22:06:00Z,30.0600,-84.2910,10.51,1111122 
COMPS,ioos:station:USF.COMPS:SHP:1,2010-12-01T22:12:00Z,30.0600,-84.2910,10.46,1111122 
COMPS,ioos:station:USF.COMPS:SHP:1,2010-12-01T22:18:00Z,30.0600,-84.2910,10.39,1111122 
COMPS,ioos:station:USF.COMPS:SHP:1,2010-12-01T22:24:00Z,30.0600,-84.2910,10.16,1111122 
COMPS,ioos:station:USF.COMPS:SHP:1,2010-12-01T22:30:00Z,30.0600,-84.2910,9.92,1111122 
COMPS,ioos:station:USF.COMPS:SHP:1,2010-12-01T22:36:00Z,30.0600,-84.2910,9.64,1111122 
COMPS,ioos:station:USF.COMPS:SHP:1,2010-12-01T22:42:00Z,30.0600,-84.2910,9.55,1111122 
COMPS,ioos:station:USF.COMPS:SHP:1,2010-12-01T22:48:00Z,30.0600,-84.2910,9.34,1111122 
COMPS,ioos:station:USF.COMPS:SHP:1,2010-12-01T22:54:00Z,30.0600,-84.2910,9.08,1111122 
COMPS,ioos:station:USF.COMPS:SHP:1,2010-12-01T23:00:00Z,30.0600,-84.2910,9.1,1111122 
COMPS,ioos:station:USF.COMPS:SHP:1,2010-12-01T23:06:00Z,30.0600,-84.2910,8.82,1111122 
COMPS,ioos:station:USF.COMPS:SHP:1,2010-12-01T23:12:00Z,30.0600,-84.2910,8.7,1111122 
COMPS,ioos:station:USF.COMPS:SHP:1,2010-12-01T23:18:00Z,30.0600,-84.2910,8.43,1111122 
COMPS,ioos:station:USF.COMPS:SHP:1,2010-12-01T23:24:00Z,30.0600,-84.2910,8.55,1111122 
COMPS,ioos:station:USF.COMPS:SHP:1,2010-12-01T23:30:00Z,30.0600,-84.2910,8.46,1111122 
COMPS,ioos:station:USF.COMPS:SHP:1,2010-12-01T23:36:00Z,30.0600,-84.2910,8.52,1111122 
COMPS,ioos:station:USF.COMPS:SHP:1,2010-12-01T23:42:00Z,30.0600,-84.2910,8.39,1111122 
COMPS,ioos:station:USF.COMPS:SHP:1,2010-12-01T23:48:00Z,30.0600,-84.2910,8.17,1111122 
COMPS,ioos:station:USF.COMPS:SHP:1,2010-12-01T23:54:00Z,30.0600,-84.2910,8.08,1111122 
COMPS,ioos:station:USF.COMPS:SHP:1,2010-12-02T00:00:00Z,30.0600,-84.2910,8.1,1111122 
COMPS,ioos:station:USF.COMPS:SHP:1,2010-12-02T00:06:00Z,30.0600,-84.2910,7.96,1111122 
COMPS,ioos:station:USF.COMPS:SHP:1,2010-12-02T00:12:00Z,30.0600,-84.2910,7.96,1111122 
COMPS,ioos:station:USF.COMPS:SHP:1,2010-12-02T00:18:00Z,30.0600,-84.2910,7.89,1111122 
COMPS,ioos:station:USF.COMPS:SHP:1,2010-12-02T00:24:00Z,30.0600,-84.2910,7.96,1111122 
COMPS,ioos:station:USF.COMPS:SHP:1,2010-12-02T00:30:00Z,30.0600,-84.2910,7.74,1111122 
COMPS,ioos:station:USF.COMPS:SHP:1,2010-12-02T00:36:00Z,30.0600,-84.2910,7.62,1111122 
COMPS,ioos:station:USF.COMPS:SHP:1,2010-12-02T00:42:00Z,30.0600,-84.2910,7.67,1111122 
COMPS,ioos:station:USF.COMPS:SHP:1,2010-12-02T00:48:00Z,30.0600,-84.2910,7.56,1111122 
COMPS,ioos:station:USF.COMPS:SHP:1,2010-12-02T00:54:00Z,30.0600,-84.2910,7.43,1111122 
COMPS,ioos:station:USF.COMPS:SHP:1,2010-12-02T01:00:00Z,30.0600,-84.2910,7.4,1111122 
COMPS,ioos:station:USF.COMPS:SHP:1,2010-12-02T01:06:00Z,30.0600,-84.2910,7.3,1111122 
COMPS,ioos:station:USF.COMPS:SHP:1,2010-12-02T01:12:00Z,30.0600,-84.2910,7.21,1111122 
COMPS,ioos:station:USF.COMPS:SHP:1,2010-12-02T01:18:00Z,30.0600,-84.2910,7.16,1111122 
COMPS,ioos:station:USF.COMPS:SHP:1,2010-12-02T01:24:00Z,30.0600,-84.2910,7.09,1111122 
COMPS,ioos:station:USF.COMPS:SHP:1,2010-12-02T01:30:00Z,30.0600,-84.2910,6.99,1111122 
COMPS,ioos:station:USF.COMPS:SHP:1,2010-12-02T01:36:00Z,30.0600,-84.2910,6.87,1111122 
COMPS,ioos:station:USF.COMPS:SHP:1,2010-12-02T01:42:00Z,30.0600,-84.2910,6.84,1111122 
COMPS,ioos:station:USF.COMPS:SHP:1,2010-12-02T01:48:00Z,30.0600,-84.2910,6.77,1111122 
COMPS,ioos:station:USF.COMPS:SHP:1,2010-12-02T01:54:00Z,30.0600,-84.2910,6.76,1111122 
COMPS,ioos:station:USF.COMPS:SHP:1,2010-12-02T02:00:00Z,30.0600,-84.2910,6.8,1111122 
COMPS,ioos:station:USF.COMPS:SHP:1,2010-12-02T02:06:00Z,30.0600,-84.2910,6.8,1111122 
COMPS,ioos:station:USF.COMPS:SHP:1,2010-12-02T02:12:00Z,30.0600,-84.2910,6.5,1111122 
COMPS,ioos:station:USF.COMPS:SHP:1,2010-12-02T02:18:00Z,30.0600,-84.2910,6.5,1111122 
COMPS,ioos:station:USF.COMPS:SHP:1,2010-12-02T02:24:00Z,30.0600,-84.2910,6.52,1111122 
COMPS,ioos:station:USF.COMPS:SHP:1,2010-12-02T02:30:00Z,30.0600,-84.2910,6.45,1111122 
COMPS,ioos:station:USF.COMPS:SHP:1,2010-12-02T02:36:00Z,30.0600,-84.2910,6.42,1111122 
COMPS,ioos:station:USF.COMPS:SHP:1,2010-12-02T02:42:00Z,30.0600,-84.2910,6.26,1111122 
COMPS,ioos:station:USF.COMPS:SHP:1,2010-12-02T02:48:00Z,30.0600,-84.2910,6.1,1111122 
COMPS,ioos:station:USF.COMPS:SHP:1,2010-12-02T02:54:00Z,30.0600,-84.2910,6.21,1111122 
COMPS,ioos:station:USF.COMPS:SHP:1,2010-12-02T03:00:00Z,30.0600,-84.2910,6.2,1111122 
COMPS,ioos:station:USF.COMPS:SHP:1,2010-12-02T03:06:00Z,30.0600,-84.2910,6.28,1111122 
COMPS,ioos:station:USF.COMPS:SHP:1,2010-12-02T03:12:00Z,30.0600,-84.2910,6.17,1111122 
COMPS,ioos:station:USF.COMPS:SHP:1,2010-12-02T03:18:00Z,30.0600,-84.2910,6.22,1111122 
COMPS,ioos:station:USF.COMPS:SHP:1,2010-12-02T03:24:00Z,30.0600,-84.2910,6.08,1111122 
COMPS,ioos:station:USF.COMPS:SHP:1,2010-12-02T03:30:00Z,30.0600,-84.2910,5.9,1111122 
COMPS,ioos:station:USF.COMPS:SHP:1,2010-12-02T03:36:00Z,30.0600,-84.2910,5.88,1111122 
COMPS,ioos:station:USF.COMPS:SHP:1,2010-12-02T03:42:00Z,30.0600,-84.2910,5.93,1111122 
COMPS,ioos:station:USF.COMPS:SHP:1,2010-12-02T03:48:00Z,30.0600,-84.2910,5.84,1111122 
COMPS,ioos:station:USF.COMPS:SHP:1,2010-12-02T03:54:00Z,30.0600,-84.2910,5.7,1111122 
COMPS,ioos:station:USF.COMPS:SHP:1,2010-12-02T04:00:00Z,30.0600,-84.2910,5.7,1111122 
COMPS,ioos:station:USF.COMPS:SHP:1,2010-12-02T04:06:00Z,30.0600,-84.2910,5.59,1111122 
COMPS,ioos:station:USF.COMPS:SHP:1,2010-12-02T04:12:00Z,30.0600,-84.2910,5.71,1111122 